Year,Month,Day,Hour,Minute,Value (Times are PST for temperature in C)
2017,08,23,00,00,17.80
2017,08,23,00,01,17.80
2017,08,23,00,02,17.80
2017,08,23,00,03,17.70
2017,08,23,00,04,17.70
2017,08,23,00,05,17.70
2017,08,23,00,06,17.60
2017,08,23,00,07,17.60
2017,08,23,00,08,17.60
2017,08,23,00,09,17.50
2017,08,23,00,10,17.50
2017,08,23,00,11,17.40
2017,08,23,00,12,17.40
2017,08,23,00,13,17.40
2017,08,23,00,14,17.40
2017,08,23,00,15,17.40
2017,08,23,00,16,17.40
2017,08,23,00,17,17.40
2017,08,23,00,18,17.40
2017,08,23,00,19,17.30
2017,08,23,00,20,17.30
2017,08,23,00,21,17.30
2017,08,23,00,22,17.30
2017,08,23,00,23,17.30
2017,08,23,00,24,17.30
2017,08,23,00,25,17.30
2017,08,23,00,26,17.30
2017,08,23,00,27,17.30
2017,08,23,00,28,17.30
2017,08,23,00,29,17.30
2017,08,23,00,30,17.30
2017,08,23,00,31,17.30
2017,08,23,00,32,17.20
2017,08,23,00,33,17.20
2017,08,23,00,34,17.20
2017,08,23,00,35,17.20
2017,08,23,00,36,17.20
2017,08,23,00,37,17.20
2017,08,23,00,38,17.10
2017,08,23,00,39,17.10
2017,08,23,00,40,17.10
2017,08,23,00,41,17.10
2017,08,23,00,42,17.10
2017,08,23,00,43,17.10
2017,08,23,00,44,17.00
2017,08,23,00,45,17.00
2017,08,23,00,46,17.00
2017,08,23,00,47,16.90
2017,08,23,00,48,16.90
2017,08,23,00,49,16.90
2017,08,23,00,50,16.90
2017,08,23,00,51,16.90
2017,08,23,00,52,16.90
2017,08,23,00,53,16.90
2017,08,23,00,54,16.90
2017,08,23,00,55,16.90
2017,08,23,00,56,16.80
2017,08,23,00,57,16.80
2017,08,23,00,58,16.80
2017,08,23,00,59,16.80
2017,08,23,01,00,16.80
2017,08,23,01,01,16.80
2017,08,23,01,02,16.80
2017,08,23,01,03,16.80
2017,08,23,01,04,16.80
2017,08,23,01,05,16.70
2017,08,23,01,06,16.70
2017,08,23,01,07,16.70
2017,08,23,01,08,16.70
2017,08,23,01,09,16.70
2017,08,23,01,10,16.70
2017,08,23,01,11,16.70
2017,08,23,01,12,16.60
2017,08,23,01,13,16.60
2017,08,23,01,14,16.60
2017,08,23,01,15,16.60
2017,08,23,01,16,16.60
2017,08,23,01,17,16.60
2017,08,23,01,18,16.50
2017,08,23,01,19,16.50
2017,08,23,01,20,16.50
2017,08,23,01,21,16.40
2017,08,23,01,22,16.40
2017,08,23,01,23,16.40
2017,08,23,01,24,16.40
2017,08,23,01,25,16.40
2017,08,23,01,26,16.30
2017,08,23,01,27,16.30
2017,08,23,01,28,16.30
2017,08,23,01,29,16.30
2017,08,23,01,30,16.30
2017,08,23,01,31,16.30
2017,08,23,01,32,16.30
2017,08,23,01,33,16.20
2017,08,23,01,34,16.20
2017,08,23,01,35,16.20
2017,08,23,01,36,16.20
2017,08,23,01,37,16.20
2017,08,23,01,38,16.20
2017,08,23,01,39,16.20
2017,08,23,01,40,16.20
2017,08,23,01,41,16.20
2017,08,23,01,42,16.20
2017,08,23,01,43,16.20
2017,08,23,01,44,16.20
2017,08,23,01,45,16.30
2017,08,23,01,46,16.30
2017,08,23,01,47,16.30
2017,08,23,01,48,16.30
2017,08,23,01,49,16.30
2017,08,23,01,50,16.30
2017,08,23,01,51,16.30
2017,08,23,01,52,16.30
2017,08,23,01,53,16.30
2017,08,23,01,54,16.30
2017,08,23,01,55,16.20
2017,08,23,01,56,16.20
2017,08,23,01,57,16.20
2017,08,23,01,58,16.20
2017,08,23,01,59,16.20
2017,08,23,02,00,16.10
2017,08,23,02,01,16.10
2017,08,23,02,02,16.10
2017,08,23,02,03,16.10
2017,08,23,02,04,16.10
2017,08,23,02,05,16.00
2017,08,23,02,06,16.00
2017,08,23,02,07,16.00
2017,08,23,02,08,15.90
2017,08,23,02,09,15.90
2017,08,23,02,10,15.90
2017,08,23,02,11,15.90
2017,08,23,02,12,15.90
2017,08,23,02,13,15.90
2017,08,23,02,14,15.90
2017,08,23,02,15,15.80
2017,08,23,02,16,15.80
2017,08,23,02,17,15.80
2017,08,23,02,18,15.80
2017,08,23,02,19,15.80
2017,08,23,02,20,15.80
2017,08,23,02,21,15.80
2017,08,23,02,22,15.80
2017,08,23,02,23,15.70
2017,08,23,02,24,15.70
2017,08,23,02,25,15.70
2017,08,23,02,26,15.70
2017,08,23,02,27,15.70
2017,08,23,02,28,15.70
2017,08,23,02,29,15.70
2017,08,23,02,30,15.70
2017,08,23,02,31,15.70
2017,08,23,02,32,15.70
2017,08,23,02,33,15.70
2017,08,23,02,34,15.70
2017,08,23,02,35,15.70
2017,08,23,02,36,15.70
2017,08,23,02,37,15.70
2017,08,23,02,38,15.70
2017,08,23,02,39,15.60
2017,08,23,02,40,15.60
2017,08,23,02,41,15.60
2017,08,23,02,42,15.60
2017,08,23,02,43,15.60
2017,08,23,02,44,15.60
2017,08,23,02,45,15.60
2017,08,23,02,46,15.60
2017,08,23,02,47,15.60
2017,08,23,02,48,15.60
2017,08,23,02,49,15.60
2017,08,23,02,50,15.50
2017,08,23,02,51,15.50
2017,08,23,02,52,15.50
2017,08,23,02,53,15.50
2017,08,23,02,54,15.40
2017,08,23,02,55,15.40
2017,08,23,02,56,15.40
2017,08,23,02,57,15.40
2017,08,23,02,58,15.40
2017,08,23,02,59,15.40
2017,08,23,03,00,15.40
2017,08,23,03,01,15.30
2017,08,23,03,02,15.30
2017,08,23,03,03,15.30
2017,08,23,03,04,15.30
2017,08,23,03,05,15.30
2017,08,23,03,06,15.30
2017,08,23,03,07,15.20
2017,08,23,03,08,15.20
2017,08,23,03,09,15.20
2017,08,23,03,10,15.20
2017,08,23,03,11,15.10
2017,08,23,03,12,15.10
2017,08,23,03,13,15.10
2017,08,23,03,14,15.00
2017,08,23,03,15,15.00
2017,08,23,03,16,15.00
2017,08,23,03,17,15.00
2017,08,23,03,18,15.00
2017,08,23,03,19,15.00
2017,08,23,03,20,15.00
2017,08,23,03,21,15.00
2017,08,23,03,22,15.00
2017,08,23,03,23,15.00
2017,08,23,03,24,15.00
2017,08,23,03,25,15.00
2017,08,23,03,26,15.00
2017,08,23,03,27,15.00
2017,08,23,03,28,15.00
2017,08,23,03,29,15.00
2017,08,23,03,30,15.00
2017,08,23,03,31,15.00
2017,08,23,03,32,15.00
2017,08,23,03,33,15.00
2017,08,23,03,34,15.00
2017,08,23,03,35,15.00
2017,08,23,03,36,15.00
2017,08,23,03,37,15.00
2017,08,23,03,38,15.00
2017,08,23,03,39,15.00
2017,08,23,03,40,15.00
2017,08,23,03,41,15.00
2017,08,23,03,42,15.00
2017,08,23,03,43,15.00
2017,08,23,03,44,14.90
2017,08,23,03,45,14.90
2017,08,23,03,46,14.90
2017,08,23,03,47,14.90
2017,08,23,03,48,14.90
2017,08,23,03,49,14.80
2017,08,23,03,50,14.80
2017,08,23,03,51,14.80
2017,08,23,03,52,14.80
2017,08,23,03,53,14.80
2017,08,23,03,54,14.80
2017,08,23,03,55,14.80
2017,08,23,03,56,14.80
2017,08,23,03,57,14.70
2017,08,23,03,58,14.70
2017,08,23,03,59,14.70
2017,08,23,04,00,14.70
2017,08,23,04,01,14.70
2017,08,23,04,02,14.70
2017,08,23,04,03,14.70
2017,08,23,04,04,14.70
2017,08,23,04,05,14.70
2017,08,23,04,06,14.70
2017,08,23,04,07,14.70
2017,08,23,04,08,14.70
2017,08,23,04,09,14.70
2017,08,23,04,10,14.70
2017,08,23,04,11,14.70
2017,08,23,04,12,14.70
2017,08,23,04,13,14.70
2017,08,23,04,14,14.70
2017,08,23,04,15,14.70
2017,08,23,04,16,14.70
2017,08,23,04,17,14.60
2017,08,23,04,18,14.60
2017,08,23,04,19,14.60
2017,08,23,04,20,14.60
2017,08,23,04,21,14.60
2017,08,23,04,22,14.60
2017,08,23,04,23,14.60
2017,08,23,04,24,14.60
2017,08,23,04,25,14.60
2017,08,23,04,26,14.60
2017,08,23,04,27,14.60
2017,08,23,04,28,14.60
2017,08,23,04,29,14.60
2017,08,23,04,30,14.60
2017,08,23,04,31,14.60
2017,08,23,04,32,14.60
2017,08,23,04,33,14.60
2017,08,23,04,34,14.60
2017,08,23,04,35,14.60
2017,08,23,04,36,14.60
2017,08,23,04,37,14.60
2017,08,23,04,38,14.60
2017,08,23,04,39,14.60
2017,08,23,04,40,14.60
2017,08,23,04,41,14.60
2017,08,23,04,42,14.60
2017,08,23,04,43,14.60
2017,08,23,04,44,14.60
2017,08,23,04,45,14.60
2017,08,23,04,46,14.60
2017,08,23,04,47,14.60
2017,08,23,04,48,14.60
2017,08,23,04,49,14.50
2017,08,23,04,50,14.50
2017,08,23,04,51,14.50
2017,08,23,04,52,14.50
2017,08,23,04,53,14.50
2017,08,23,04,54,14.50
2017,08,23,04,55,14.50
2017,08,23,04,56,14.50
2017,08,23,04,57,14.50
2017,08,23,04,58,14.50
2017,08,23,04,59,14.40
2017,08,23,05,00,14.40
2017,08,23,05,01,14.40
2017,08,23,05,02,14.40
2017,08,23,05,03,14.40
2017,08,23,05,04,14.40
2017,08,23,05,05,14.30
2017,08,23,05,06,14.30
2017,08,23,05,07,14.30
2017,08,23,05,08,14.30
2017,08,23,05,09,14.30
2017,08,23,05,10,14.30
2017,08,23,05,11,14.30
2017,08,23,05,12,14.30
2017,08,23,05,13,14.20
2017,08,23,05,14,14.20
2017,08,23,05,15,14.20
2017,08,23,05,16,14.20
2017,08,23,05,17,14.20
2017,08,23,05,18,14.20
2017,08,23,05,19,14.20
2017,08,23,05,20,14.20
2017,08,23,05,21,14.20
2017,08,23,05,22,14.10
2017,08,23,05,23,14.10
2017,08,23,05,24,14.10
2017,08,23,05,25,14.10
2017,08,23,05,26,14.10
2017,08,23,05,27,14.10
2017,08,23,05,28,14.10
2017,08,23,05,29,14.00
2017,08,23,05,30,14.00
2017,08,23,05,31,14.00
2017,08,23,05,32,14.00
2017,08,23,05,33,13.90
2017,08,23,05,34,13.90
2017,08,23,05,35,13.90
2017,08,23,05,36,13.90
2017,08,23,05,37,13.90
2017,08,23,05,38,13.90
2017,08,23,05,39,13.90
2017,08,23,05,40,13.90
2017,08,23,05,41,13.90
2017,08,23,05,42,13.90
2017,08,23,05,43,13.80
2017,08,23,05,44,13.80
2017,08,23,05,45,13.80
2017,08,23,05,46,13.80
2017,08,23,05,47,13.80
2017,08,23,05,48,13.80
2017,08,23,05,49,13.80
2017,08,23,05,50,13.80
2017,08,23,05,51,13.80
2017,08,23,05,52,13.80
2017,08,23,05,53,13.70
2017,08,23,05,54,13.70
2017,08,23,05,55,13.70
2017,08,23,05,56,13.70
2017,08,23,05,57,13.70
2017,08,23,05,58,13.70
2017,08,23,05,59,13.70
2017,08,23,06,00,13.70
2017,08,23,06,01,13.70
2017,08,23,06,02,13.70
2017,08,23,06,03,13.60
2017,08,23,06,04,13.60
2017,08,23,06,05,13.60
2017,08,23,06,06,13.60
2017,08,23,06,07,13.60
2017,08,23,06,08,13.60
2017,08,23,06,09,13.60
2017,08,23,06,10,13.60
2017,08,23,06,11,13.60
2017,08,23,06,12,13.60
2017,08,23,06,13,13.60
2017,08,23,06,14,13.60
2017,08,23,06,15,13.50
2017,08,23,06,16,13.50
2017,08,23,06,17,13.50
2017,08,23,06,18,13.40
2017,08,23,06,19,13.40
2017,08,23,06,20,13.40
2017,08,23,06,21,13.40
2017,08,23,06,22,13.30
2017,08,23,06,23,13.30
2017,08,23,06,24,13.30
2017,08,23,06,25,13.30
2017,08,23,06,26,13.30
2017,08,23,06,27,13.20
2017,08,23,06,28,13.20
2017,08,23,06,29,13.20
2017,08,23,06,30,13.20
2017,08,23,06,31,13.20
2017,08,23,06,32,13.20
2017,08,23,06,33,13.20
2017,08,23,06,34,13.20
2017,08,23,06,35,13.20
2017,08,23,06,36,13.20
2017,08,23,06,37,13.20
2017,08,23,06,38,13.20
2017,08,23,06,39,13.20
2017,08,23,06,40,13.20
2017,08,23,06,41,13.20
2017,08,23,06,42,13.20
2017,08,23,06,43,13.20
2017,08,23,06,44,13.20
2017,08,23,06,45,13.20
2017,08,23,06,46,13.20
2017,08,23,06,47,13.20
2017,08,23,06,48,13.20
2017,08,23,06,49,13.20
2017,08,23,06,50,13.20
2017,08,23,06,51,13.30
2017,08,23,06,52,13.30
2017,08,23,06,53,13.30
2017,08,23,06,54,13.30
2017,08,23,06,55,13.30
2017,08,23,06,56,13.30
2017,08,23,06,57,13.30
2017,08,23,06,58,13.30
2017,08,23,06,59,13.30
2017,08,23,07,00,13.20
2017,08,23,07,01,13.20
2017,08,23,07,02,13.20
2017,08,23,07,03,13.20
2017,08,23,07,04,13.20
2017,08,23,07,05,13.20
2017,08,23,07,06,13.30
2017,08,23,07,07,13.30
2017,08,23,07,08,13.30
2017,08,23,07,09,13.20
2017,08,23,07,10,13.20
2017,08,23,07,11,13.20
2017,08,23,07,12,13.20
2017,08,23,07,13,13.20
2017,08,23,07,14,13.20
2017,08,23,07,15,13.20
2017,08,23,07,16,13.20
2017,08,23,07,17,13.20
2017,08,23,07,18,13.10
2017,08,23,07,19,13.10
2017,08,23,07,20,13.10
2017,08,23,07,21,13.10
2017,08,23,07,22,13.10
2017,08,23,07,23,13.10
2017,08,23,07,24,13.10
2017,08,23,07,25,13.10
2017,08,23,07,26,13.10
2017,08,23,07,27,13.10
2017,08,23,07,28,13.10
2017,08,23,07,29,13.10
2017,08,23,07,30,13.10
2017,08,23,07,31,13.10
2017,08,23,07,32,13.10
2017,08,23,07,33,13.20
2017,08,23,07,34,13.20
2017,08,23,07,35,13.20
2017,08,23,07,36,13.30
2017,08,23,07,37,13.30
2017,08,23,07,38,13.30
2017,08,23,07,39,13.30
2017,08,23,07,40,13.40
2017,08,23,07,41,13.40
2017,08,23,07,42,13.40
2017,08,23,07,43,13.40
2017,08,23,07,44,13.40
2017,08,23,07,45,13.40
2017,08,23,07,46,13.50
2017,08,23,07,47,13.50
2017,08,23,07,48,13.60
2017,08,23,07,49,13.60
2017,08,23,07,50,13.60
2017,08,23,07,51,13.70
2017,08,23,07,52,13.70
2017,08,23,07,53,13.70
2017,08,23,07,54,13.70
2017,08,23,07,55,13.80
2017,08,23,07,56,13.80
2017,08,23,07,57,13.80
2017,08,23,07,58,13.80
2017,08,23,07,59,13.90
2017,08,23,08,00,13.90
2017,08,23,08,01,13.90
2017,08,23,08,02,13.90
2017,08,23,08,03,13.90
2017,08,23,08,04,14.00
2017,08,23,08,05,14.00
2017,08,23,08,06,14.00
2017,08,23,08,07,14.00
2017,08,23,08,08,14.10
2017,08,23,08,09,14.10
2017,08,23,08,10,14.10
2017,08,23,08,11,14.10
2017,08,23,08,12,14.10
2017,08,23,08,13,14.10
2017,08,23,08,14,14.10
2017,08,23,08,15,14.10
2017,08,23,08,16,14.10
2017,08,23,08,17,14.10
2017,08,23,08,18,14.20
2017,08,23,08,19,14.10
2017,08,23,08,20,14.20
2017,08,23,08,21,14.20
2017,08,23,08,22,14.20
2017,08,23,08,23,14.20
2017,08,23,08,24,14.20
2017,08,23,08,25,14.20
2017,08,23,08,26,14.20
2017,08,23,08,27,14.30
2017,08,23,08,28,14.30
2017,08,23,08,29,14.30
2017,08,23,08,30,14.30
2017,08,23,08,31,14.40
2017,08,23,08,32,14.40
2017,08,23,08,33,14.50
2017,08,23,08,34,14.50
2017,08,23,08,35,14.60
2017,08,23,08,36,14.60
2017,08,23,08,37,14.70
2017,08,23,08,38,14.70
2017,08,23,08,39,14.80
2017,08,23,08,40,14.80
2017,08,23,08,41,14.90
2017,08,23,08,42,15.00
2017,08,23,08,43,15.00
2017,08,23,08,44,15.00
2017,08,23,08,45,15.00
2017,08,23,08,46,15.00
2017,08,23,08,47,15.00
2017,08,23,08,48,15.10
2017,08,23,08,49,15.20
2017,08,23,08,50,15.20
2017,08,23,08,51,15.20
2017,08,23,08,52,15.30
2017,08,23,08,53,15.30
2017,08,23,08,54,15.30
2017,08,23,08,55,15.30
2017,08,23,08,56,15.30
2017,08,23,08,57,15.40
2017,08,23,08,58,15.40
2017,08,23,08,59,15.40
2017,08,23,09,00,15.40
2017,08,23,09,01,15.40
2017,08,23,09,02,15.50
2017,08,23,09,03,15.50
2017,08,23,09,04,15.50
2017,08,23,09,05,15.60
2017,08,23,09,06,15.60
2017,08,23,09,07,15.70
2017,08,23,09,08,15.70
2017,08,23,09,09,15.80
2017,08,23,09,10,15.90
2017,08,23,09,11,16.00
2017,08,23,09,12,16.00
2017,08,23,09,13,16.10
2017,08,23,09,14,16.20
2017,08,23,09,15,16.20
2017,08,23,09,16,16.20
2017,08,23,09,17,16.30
2017,08,23,09,18,16.40
2017,08,23,09,19,16.50
2017,08,23,09,20,16.50
2017,08,23,09,21,16.60
2017,08,23,09,22,16.60
2017,08,23,09,23,16.70
2017,08,23,09,24,16.70
2017,08,23,09,25,16.70
2017,08,23,09,26,16.80
2017,08,23,09,27,16.80
2017,08,23,09,28,16.90
2017,08,23,09,29,16.90
2017,08,23,09,30,17.00
2017,08,23,09,31,17.10
2017,08,23,09,32,17.20
2017,08,23,09,33,17.30
2017,08,23,09,34,17.40
2017,08,23,09,35,17.40
2017,08,23,09,36,17.50
2017,08,23,09,37,17.60
2017,08,23,09,38,17.60
2017,08,23,09,39,17.70
2017,08,23,09,40,17.70
2017,08,23,09,41,17.80
2017,08,23,09,42,17.80
2017,08,23,09,43,17.80
2017,08,23,09,44,17.80
2017,08,23,16,26,22.70
2017,08,23,16,27,22.70
2017,08,23,16,28,22.70
2017,08,23,16,29,22.60
2017,08,23,16,30,22.60
2017,08,23,16,31,22.60
2017,08,23,16,32,22.60
2017,08,23,16,33,22.60
2017,08,23,16,34,22.60
2017,08,23,16,35,22.50
2017,08,23,16,36,22.50
2017,08,23,16,37,22.50
2017,08,23,16,38,22.50
2017,08,23,16,39,22.50
2017,08,23,16,40,22.50
2017,08,23,16,41,22.50
2017,08,23,16,42,22.50
2017,08,23,16,43,22.50
2017,08,23,16,44,22.40
2017,08,23,16,45,22.40
2017,08,23,16,46,22.30
2017,08,23,16,47,22.30
2017,08,23,16,48,22.20
2017,08,23,16,49,22.20
2017,08,23,16,50,22.20
2017,08,23,16,51,22.10
2017,08,23,16,52,22.10
2017,08,23,16,53,22.10
2017,08,23,16,54,22.10
2017,08,23,16,55,22.10
2017,08,23,16,56,22.00
2017,08,23,16,57,22.00
2017,08,23,16,58,21.90
2017,08,23,16,59,21.90
2017,08,23,17,00,21.90
2017,08,23,17,01,21.90
2017,08,23,17,02,21.90
2017,08,23,17,03,21.90
2017,08,23,17,04,21.90
2017,08,23,17,05,22.00
2017,08,23,17,06,22.00
2017,08,23,17,07,22.10
2017,08,23,17,08,22.20
2017,08,23,17,09,22.20
2017,08,23,17,10,22.20
2017,08,23,17,11,22.20
2017,08,23,17,12,22.20
2017,08,23,17,13,22.20
2017,08,23,17,14,22.20
2017,08,23,17,15,22.20
2017,08,23,17,16,22.10
2017,08,23,17,17,22.00
2017,08,23,17,18,22.00
2017,08,23,17,19,21.90
2017,08,23,17,20,21.80
2017,08,23,17,21,21.80
2017,08,23,17,22,21.80
2017,08,23,17,23,21.80
2017,08,23,17,24,21.80
2017,08,23,17,25,21.80
2017,08,23,17,26,21.80
2017,08,23,17,27,21.70
2017,08,23,17,28,21.70
2017,08,23,17,29,21.70
2017,08,23,17,30,21.70
2017,08,23,17,31,21.60
2017,08,23,17,32,21.60
2017,08,23,17,33,21.60
2017,08,23,17,34,21.60
2017,08,23,17,35,21.60
2017,08,23,17,36,21.60
2017,08,23,17,37,21.50
2017,08,23,17,38,21.40
2017,08,23,17,39,21.40
2017,08,23,17,40,21.40
2017,08,23,17,41,21.40
2017,08,23,17,42,21.40
2017,08,23,17,43,21.30
2017,08,23,17,44,21.30
2017,08,23,17,45,21.30
2017,08,23,17,46,21.40
2017,08,23,17,47,21.30
2017,08,23,17,48,21.30
2017,08,23,17,49,21.30
2017,08,23,17,50,21.30
2017,08,23,17,51,21.30
2017,08,23,17,52,21.30
2017,08,23,17,53,21.20
2017,08,23,17,54,21.20
2017,08,23,17,55,21.20
2017,08,23,17,56,21.20
2017,08,23,17,57,21.10
2017,08,23,17,58,21.10
2017,08,23,17,59,21.10
2017,08,23,18,00,21.10
2017,08,23,18,01,21.00
2017,08,23,18,02,21.00
2017,08,23,18,03,21.00
2017,08,23,18,04,21.00
2017,08,23,18,05,20.90
2017,08,23,18,06,20.90
2017,08,23,18,07,20.90
2017,08,23,18,08,20.90
2017,08,23,18,09,20.90
2017,08,23,18,10,20.80
2017,08,23,18,11,20.80
2017,08,23,18,12,20.80
2017,08,23,18,13,20.80
2017,08,23,18,14,20.80
2017,08,23,18,15,20.80
2017,08,23,18,16,20.80
2017,08,23,18,17,20.70
2017,08,23,18,18,20.70
2017,08,23,18,19,20.80
2017,08,23,18,20,20.70
2017,08,23,18,21,20.70
2017,08,23,18,22,20.70
2017,08,23,18,23,20.60
2017,08,23,18,24,20.60
2017,08,23,18,25,20.60
2017,08,23,18,26,20.60
2017,08,23,18,27,20.50
2017,08,23,18,28,20.40
2017,08,23,18,29,20.40
2017,08,23,18,30,20.30
2017,08,23,18,31,20.20
2017,08,23,18,32,20.20
2017,08,23,18,33,20.10
2017,08,23,18,34,20.00
2017,08,23,18,35,20.00
2017,08,23,18,36,19.90
2017,08,23,18,37,19.90
2017,08,23,18,38,19.90
2017,08,23,18,39,19.80
2017,08,23,18,40,19.80
2017,08,23,18,41,19.80
2017,08,23,18,42,19.70
2017,08,23,18,43,19.70
2017,08,23,18,44,19.60
2017,08,23,18,45,19.60
2017,08,23,18,46,19.50
2017,08,23,18,47,19.50
2017,08,23,18,48,19.50
2017,08,23,18,49,19.40
2017,08,23,18,50,19.40
2017,08,23,18,51,19.40
2017,08,23,18,52,19.40
2017,08,23,18,53,19.40
2017,08,23,18,54,19.30
2017,08,23,18,55,19.40
2017,08,23,18,56,19.40
2017,08,23,18,57,19.40
2017,08,23,18,58,19.40
2017,08,23,18,59,19.40
2017,08,23,19,00,19.40
2017,08,23,19,01,19.40
2017,08,23,19,02,19.40
2017,08,23,19,03,19.40
2017,08,23,19,04,19.40
2017,08,23,19,05,19.40
2017,08,23,19,06,19.40
2017,08,23,19,07,19.40
2017,08,23,19,08,19.50
2017,08,23,19,09,19.50
2017,08,23,19,10,19.50
2017,08,23,19,11,19.50
2017,08,23,19,12,19.50
2017,08,23,19,13,19.50
2017,08,23,19,14,19.50
2017,08,23,19,15,19.50
2017,08,23,19,16,19.50
2017,08,23,19,17,19.40
2017,08,23,19,18,19.40
2017,08,23,19,19,19.40
2017,08,23,19,20,19.40
2017,08,23,19,21,19.30
2017,08,23,19,22,19.30
2017,08,23,19,23,19.30
2017,08,23,19,24,19.30
2017,08,23,19,25,19.20
2017,08,23,19,26,19.20
2017,08,23,19,27,19.20
2017,08,23,19,28,19.20
2017,08,23,19,29,19.20
2017,08,23,19,30,19.10
2017,08,23,19,31,19.10
2017,08,23,19,32,19.10
2017,08,23,19,33,19.10
2017,08,23,19,34,19.00
2017,08,23,19,35,19.00
2017,08,23,19,36,19.00
2017,08,23,19,37,19.00
2017,08,23,19,38,18.90
2017,08,23,19,39,18.90
2017,08,23,19,40,18.90
2017,08,23,19,41,18.90
2017,08,23,19,42,18.90
2017,08,23,19,43,18.90
2017,08,23,19,44,18.80
2017,08,23,19,45,18.80
2017,08,23,19,46,18.80
2017,08,23,19,47,18.80
2017,08,23,19,48,18.80
2017,08,23,19,49,18.80
2017,08,23,19,50,18.80
2017,08,23,19,51,18.80
2017,08,23,19,52,18.80
2017,08,23,19,53,18.80
2017,08,23,19,54,18.80
2017,08,23,19,55,18.80
2017,08,23,19,56,18.80
2017,08,23,19,57,18.80
2017,08,23,19,58,18.80
2017,08,23,19,59,18.80
2017,08,23,20,00,18.80
2017,08,23,20,01,18.80
2017,08,23,20,02,18.80
2017,08,23,20,03,18.70
2017,08,23,20,04,18.70
2017,08,23,20,05,18.70
2017,08,23,20,06,18.70
2017,08,23,20,07,18.70
2017,08,23,20,08,18.70
2017,08,23,20,09,18.70
2017,08,23,20,10,18.70
2017,08,23,20,11,18.60
2017,08,23,20,12,18.60
2017,08,23,20,13,18.60
2017,08,23,20,14,18.60
2017,08,23,20,15,18.60
2017,08,23,20,16,18.60
2017,08,23,20,17,18.60
2017,08,23,20,18,18.60
2017,08,23,20,19,18.60
2017,08,23,20,20,18.60
2017,08,23,20,21,18.60
2017,08,23,20,22,18.60
2017,08,23,20,23,18.60
2017,08,23,20,24,18.60
2017,08,23,20,25,18.60
2017,08,23,20,26,18.60
2017,08,23,20,27,18.60
2017,08,23,20,28,18.60
2017,08,23,20,29,18.60
2017,08,23,20,30,18.60
2017,08,23,20,31,18.60
2017,08,23,20,32,18.60
2017,08,23,20,33,18.60
2017,08,23,20,34,18.50
2017,08,23,20,35,18.50
2017,08,23,20,36,18.50
2017,08,23,20,37,18.50
2017,08,23,20,38,18.50
2017,08,23,20,39,18.50
2017,08,23,20,40,18.40
2017,08,23,20,41,18.40
2017,08,23,20,42,18.40
2017,08,23,20,43,18.40
2017,08,23,20,44,18.40
2017,08,23,20,45,18.40
2017,08,23,20,46,18.40
2017,08,23,20,47,18.40
2017,08,23,20,48,18.40
2017,08,23,20,49,18.40
2017,08,23,20,50,18.40
2017,08,23,20,51,18.30
2017,08,23,20,52,18.30
2017,08,23,20,53,18.30
2017,08,23,20,54,18.30
2017,08,23,20,55,18.30
2017,08,23,20,56,18.30
2017,08,23,20,57,18.30
2017,08,23,20,58,18.30
2017,08,23,20,59,18.30
2017,08,23,21,00,18.30
2017,08,23,21,01,18.30
2017,08,23,21,02,18.30
2017,08,23,21,03,18.20
2017,08,23,21,04,18.20
2017,08,23,21,05,18.20
2017,08,23,21,06,18.20
2017,08,23,21,07,18.20
2017,08,23,21,08,18.20
2017,08,23,21,09,18.20
2017,08,23,21,10,18.10
2017,08,23,21,11,18.10
2017,08,23,21,12,18.10
2017,08,23,21,13,18.10
2017,08,23,21,14,18.10
2017,08,23,21,15,18.10
2017,08,23,21,16,18.10
2017,08,23,21,17,18.00
2017,08,23,21,18,18.00
2017,08,23,21,19,18.00
2017,08,23,21,20,18.00
2017,08,23,21,21,17.90
2017,08,23,21,22,17.90
2017,08,23,21,23,17.90
2017,08,23,21,24,17.90
2017,08,23,21,25,17.90
2017,08,23,21,26,17.90
2017,08,23,21,27,17.90
2017,08,23,21,28,17.90
2017,08,23,21,29,17.80
2017,08,23,21,30,17.80
2017,08,23,21,31,17.80
2017,08,23,21,32,17.80
2017,08,23,21,33,17.70
2017,08,23,21,34,17.70
2017,08,23,21,35,17.70
2017,08,23,21,36,17.70
2017,08,23,21,37,17.60
2017,08,23,21,38,17.60
2017,08,23,21,39,17.60
2017,08,23,21,40,17.50
2017,08,23,21,41,17.50
2017,08,23,21,42,17.40
2017,08,23,21,43,17.40
2017,08,23,21,44,17.40
2017,08,23,21,45,17.30
2017,08,23,21,46,17.30
2017,08,23,21,47,17.30
2017,08,23,21,48,17.30
2017,08,23,21,49,17.30
2017,08,23,21,50,17.20
2017,08,23,21,51,17.20
2017,08,23,21,52,17.20
2017,08,23,21,53,17.10
2017,08,23,21,54,17.10
2017,08,23,21,55,17.10
2017,08,23,21,56,17.10
2017,08,23,21,57,17.10
2017,08,23,21,58,17.10
2017,08,23,21,59,17.10
2017,08,23,22,00,17.10
2017,08,23,22,01,17.10
2017,08,23,22,02,17.10
2017,08,23,22,03,17.10
2017,08,23,22,04,17.10
2017,08,23,22,05,17.00
2017,08,23,22,06,17.00
2017,08,23,22,07,17.00
2017,08,23,22,08,17.00
2017,08,23,22,09,16.90
2017,08,23,22,10,16.90
2017,08,23,22,11,16.90
2017,08,23,22,12,16.90
2017,08,23,22,13,16.90
2017,08,23,22,14,16.90
2017,08,23,22,15,16.80
2017,08,23,22,16,16.80
2017,08,23,22,17,16.80
2017,08,23,22,18,16.80
2017,08,23,22,19,16.80
2017,08,23,22,20,16.80
2017,08,23,22,21,16.90
2017,08,23,22,22,16.90
2017,08,23,22,23,16.90
2017,08,23,22,24,16.90
2017,08,23,22,25,16.90
2017,08,23,22,26,16.90
2017,08,23,22,27,16.90
2017,08,23,22,28,16.90
2017,08,23,22,29,16.90
2017,08,23,22,30,16.90
2017,08,23,22,31,16.90
2017,08,23,22,32,16.90
2017,08,23,22,33,16.90
2017,08,23,22,34,16.90
2017,08,23,22,35,16.90
2017,08,23,22,36,16.90
2017,08,23,22,37,16.90
2017,08,23,22,38,16.90
2017,08,23,22,39,16.90
2017,08,23,22,40,16.90
2017,08,23,22,41,16.90
2017,08,23,22,42,16.90
2017,08,23,22,43,16.90
2017,08,23,22,44,16.90
2017,08,23,22,45,16.90
2017,08,23,22,46,16.90
2017,08,23,22,47,16.90
2017,08,23,22,48,16.90
2017,08,23,22,49,16.90
2017,08,23,22,50,16.80
2017,08,23,22,51,16.80
2017,08,23,22,52,16.80
2017,08,23,22,53,16.80
2017,08,23,22,54,16.80
2017,08,23,22,55,16.70
2017,08,23,22,56,16.70
2017,08,23,22,57,16.70
2017,08,23,22,58,16.70
2017,08,23,22,59,16.70
2017,08,23,23,00,16.70
2017,08,23,23,01,16.60
2017,08,23,23,02,16.60
2017,08,23,23,03,16.60
2017,08,23,23,04,16.60
2017,08,23,23,05,16.60
2017,08,23,23,06,16.50
2017,08,23,23,07,16.50
2017,08,23,23,08,16.50
2017,08,23,23,09,16.40
2017,08,23,23,10,16.40
2017,08,23,23,11,16.40
2017,08,23,23,12,16.40
2017,08,23,23,13,16.30
2017,08,23,23,14,16.30
2017,08,23,23,15,16.30
2017,08,23,23,16,16.30
2017,08,23,23,17,16.30
2017,08,23,23,18,16.20
2017,08,23,23,19,16.20
2017,08,23,23,20,16.20
2017,08,23,23,21,16.10
2017,08,23,23,22,16.10
2017,08,23,23,23,16.10
2017,08,23,23,24,16.10
2017,08,23,23,25,16.10
2017,08,23,23,26,16.00
2017,08,23,23,27,16.00
2017,08,23,23,28,15.90
2017,08,23,23,29,15.90
2017,08,23,23,30,15.90
2017,08,23,23,31,15.90
2017,08,23,23,32,15.80
2017,08,23,23,33,15.80
2017,08,23,23,34,15.80
2017,08,23,23,35,15.80
2017,08,23,23,36,15.70
2017,08,23,23,37,15.70
2017,08,23,23,38,15.70
2017,08,23,23,39,15.70
2017,08,23,23,40,15.60
2017,08,23,23,41,15.60
2017,08,23,23,42,15.60
2017,08,23,23,43,15.50
2017,08,23,23,44,15.50
2017,08,23,23,45,15.50
2017,08,23,23,46,15.40
2017,08,23,23,47,15.40
2017,08,23,23,48,15.40
2017,08,23,23,49,15.40
2017,08,23,23,50,15.40
2017,08,23,23,51,15.30
2017,08,23,23,52,15.30
2017,08,23,23,53,15.30
2017,08,23,23,54,15.30
2017,08,23,23,55,15.30
2017,08,23,23,56,15.30
2017,08,23,23,57,15.20
2017,08,23,23,58,15.20
2017,08,23,23,59,15.20
